Weather History for KCOU - December, 2014

Change the Weather History Date:

Monday, December 29, 2014

  Actual Average Record
Temperature  
Mean Temperature 31 °F 30 °F  
Max Temperature 40 °F 39 °F 67 °F (1984)
Min Temperature 21 °F 21 °F -8 °F (1917)
Degree Days  
Heating Degree Days 34 35  
Month to date heating degree days 779 939  
Since 1 July heating degree days 1860 1924  
Cooling Degree Days 0 0  
Month to date cooling degree days 0 0  
Year to date cooling degree days 1266 1249  
Moisture  
Dew Point 23 °F    
Average Humidity 71    
Maximum Humidity 92    
Minimum Humidity 50    
Precipitation  
Precipitation 0.00 in 0.06 in 2.04 in (1984)
Month to date precipitation 2.18 2.30  
Year to date precipitation 44.12 42.48  
Snow  
Snow 0.00 in 0.20 in 6.90 in (1954)
Month to date snowfall 1.0 4.1  
Since 1 July snowfall 1.8 5.0  
Snow Depth 0.00 in    
Sea Level Pressure  
Sea Level Pressure 30.34 in    
Wind  
Wind Speed 8 mph (ENE)    
Max Wind Speed 16 mph    
Max Gust Speed 20 mph    
Visibility 10 miles    
Events      
T = Trace of Precipitation, MM = Missing Value Source: NWS Daily Summary

Daily Weather History Graph

Daily Weather History Graph

Search for Another Location

Airport or City:

Trip Planner

Search our weather history database for the weather conditions in past years. The results will help you decide how hot, cold, wet, or windy it might be!

Date:

Astronomy

Dec. 29, 2014 Rise Set
Actual Time 7:26 AM CST 4:55 PM CST
Civil Twilight 6:56 AM CST 5:25 PM CST
Nautical Twilight 6:23 AM CST 5:58 PM CST
Astronomical Twilight 5:51 AM CST 6:31 PM CST
Moon 12:29 PM CST (12/29) 12:47 AM CST (12/29)
Length of Visible Light 10h 28m
Length of Day
9h 28m
First Quarter, 61% of the Moon is Illuminated
Dec 29
First Quarter
Jan 4
Full
Jan 13
Last Quarter
Jan 20
New
Jan 26
First Quarter

Hourly Weather History & Observations

Time (CST) Temp. Windchill Dew Point Humidity Pressure Visibility Wind Dir Wind Speed Gust Speed Precip Events Conditions
12:54 AM 28.9 °F 25.2 °F 21.0 °F 72% 30.24 in 10.0 mi ESE 3.5 mph - N/A   Clear
1:54 AM 24.1 °F 19.7 °F 19.0 °F 81% 30.25 in 10.0 mi East 3.5 mph - N/A   Clear
2:54 AM 23.0 °F 17.0 °F 19.9 °F 88% 30.26 in 10.0 mi NE 4.6 mph - N/A   Clear
3:54 AM 24.1 °F 19.7 °F 21.0 °F 88% 30.25 in 10.0 mi ENE 3.5 mph - N/A   Clear
4:54 AM 23.0 °F 17.0 °F 19.9 °F 88% 30.26 in 10.0 mi East 4.6 mph - N/A   Clear
5:54 AM 24.1 °F 19.7 °F 21.9 °F 91% 30.27 in 10.0 mi East 3.5 mph - N/A   Clear
6:54 AM 24.1 °F 18.2 °F 21.9 °F 91% 30.29 in 10.0 mi East 4.6 mph - N/A   Clear
7:54 AM 25.0 °F 19.3 °F 23.0 °F 92% 30.31 in 8.0 mi East 4.6 mph - N/A   Clear
8:54 AM 28.9 °F 25.2 °F 26.1 °F 89% 30.33 in 8.0 mi East 3.5 mph - N/A   Clear
9:54 AM 32.0 °F 25.6 °F 27.0 °F 82% 30.34 in 10.0 mi East 6.9 mph - N/A   Clear
10:54 AM 35.1 °F 28.6 °F 26.1 °F 70% 30.35 in 10.0 mi East 8.1 mph - N/A   Clear
11:54 AM 37.0 °F 31.6 °F 25.0 °F 62% 30.33 in 10.0 mi East 6.9 mph - N/A   Clear
12:54 PM 39.0 °F 33.4 °F 25.0 °F 57% 30.30 in 10.0 mi East 8.1 mph - N/A   Clear
1:54 PM 39.0 °F 33.4 °F 25.0 °F 57% 30.29 in 10.0 mi ENE 8.1 mph - N/A   Clear
2:54 PM 39.9 °F 33.4 °F 23.0 °F 51% 30.30 in 10.0 mi NNE 10.4 mph - N/A   Clear
3:54 PM 37.9 °F 30.5 °F 24.1 °F 57% 30.33 in 10.0 mi NNE 11.5 mph - N/A   Clear
4:54 PM 35.1 °F 27.9 °F 24.1 °F 64% 30.35 in 10.0 mi NE 9.2 mph - N/A   Clear
5:54 PM 33.1 °F 26.1 °F 24.1 °F 70% 30.37 in 10.0 mi NE 8.1 mph - N/A   Clear
6:54 PM 33.1 °F 24.9 °F 24.1 °F 70% 30.39 in 10.0 mi NNE 10.4 mph - N/A   Clear
7:54 PM 33.1 °F 24.4 °F 24.1 °F 70% 30.42 in 10.0 mi NE 11.5 mph - N/A   Clear
8:54 PM 30.9 °F 21.7 °F 24.1 °F 76% 30.45 in 10.0 mi NNE 11.5 mph - N/A   Clear
9:54 PM 30.9 °F 21.7 °F 24.1 °F 76% 30.47 in 10.0 mi NNE 11.5 mph - N/A   Clear
10:54 PM 30.0 °F 20.0 °F 23.0 °F 75% 30.49 in 10.0 mi NNE 12.7 mph - N/A   Clear
11:54 PM 28.4 °F 18.0 °F 24.8 °F 86% 30.48 in 9.0 mi North 12.7 mph - N/A   Partly Cloudy